When you browse on this site, cookies collect data to enhance your experience and personalize the content and advertising you see.
Visit our Privacy Policy to learn more. By continuing to use the site, you agree to this use of cookies and data.
  • En España
  • Lista de países
  • Para 7 días
  • Temperatura del agua
  • El tiempo en el mapa
  • Informadores
  • user-avatar
    Iniciar sesión

    Tiempo cada hora Baden-Baden

    Hoy, 26 Mayo, Martes

    Tiempo Temperatura Precipitaciones Viento Presión Humedad
    00:00 +11°C° 0 mm 1 mps 742 mmHg 85%
    01:00 +10°C° 0 mm 1 mps 742 mmHg 86%
    02:00 +10°C° 0 mm 1 mps 742 mmHg 87%
    03:00 +9°C° 0 mm 1 mps 742 mmHg 89%
    04:00 +9°C° 0 mm 1 mps 742 mmHg 90%
    05:00 +10°C° 0 mm 1 mps 742 mmHg 86%
    06:00 +12°C° 0 mm 1 mps 742 mmHg 82%
    07:00 +13°C° 0 mm 1 mps 742 mmHg 78%
    08:00 +14°C° 0 mm 2 mps 742 mmHg 71%
    09:00 +16°C° 0 mm 2 mps 742 mmHg 65%
    10:00 +17°C° 0 mm 3 mps 742 mmHg 58%
    11:00 +18°C° 0 mm 3 mps 742 mmHg 56%
    12:00 +18°C° 0 mm 4 mps 742 mmHg 54%
    13:00 +19°C° 0 mm 4 mps 742 mmHg 52%
    14:00 +19°C° 0 mm 4 mps 742 mmHg 52%
    15:00 +19°C° 0 mm 4 mps 741 mmHg 52%
    16:00 +19°C° 0 mm 4 mps 741 mmHg 52%
    17:00 +18°C° 0 mm 3 mps 741 mmHg 58%
    18:00 +17°C° 0 mm 3 mps 741 mmHg 63%
    19:00 +16°C° 0 mm 3 mps 741 mmHg 69%
    20:00 +14°C° 0 mm 3 mps 741 mmHg 74%
    21:00 +13°C° 0 mm 2 mps 742 mmHg 79%
    22:00 +10°C° 0 mm 2 mps 742 mmHg 83%
    23:00 +10°C° 0 mm 2 mps 742 mmHg 84%

    Mañana, 27 Mayo, Miércoles

    Tiempo Temperatura Precipitaciones Viento Presión Humedad
    00:00 +9°C° 0 mm 2 mps 741 mmHg 86%
    01:00 +9°C° 0 mm 2 mps 741 mmHg 87%
    02:00 +8°C° 0 mm 2 mps 741 mmHg 88%
    03:00 +8°C° 0 mm 2 mps 741 mmHg 89%
    04:00 +9°C° 0 mm 1 mps 741 mmHg 90%
    05:00 +9°C° 0 mm 2 mps 741 mmHg 84%
    06:00 +12°C° 0 mm 2 mps 741 mmHg 79%
    07:00 +13°C° 0 mm 2 mps 741 mmHg 74%
    08:00 +15°C° 0 mm 2 mps 741 mmHg 67%
    09:00 +16°C° 0 mm 3 mps 741 mmHg 60%
    10:00 +18°C° 0 mm 3 mps 742 mmHg 54%
    11:00 +19°C° 0 mm 3 mps 741 mmHg 51%
    12:00 +20°C° 0 mm 3 mps 741 mmHg 48%
    13:00 +21°C° 0 mm 4 mps 741 mmHg 45%
    14:00 +21°C° 0 mm 3 mps 741 mmHg 45%
    15:00 +21°C° 0 mm 3 mps 740 mmHg 46%
    16:00 +21°C° 0 mm 3 mps 740 mmHg 46%
    17:00 +20°C° 0 mm 3 mps 740 mmHg 53%
    18:00 +19°C° 0 mm 2 mps 740 mmHg 59%
    19:00 +18°C° 0 mm 2 mps 740 mmHg 66%
    20:00 +16°C° 0 mm 1 mps 740 mmHg 68%
    21:00 +15°C° 0 mm 1 mps 740 mmHg 71%
    22:00 +13°C° 0 mm 1 mps 740 mmHg 73%
    23:00 +13°C° 0 mm 1 mps 740 mmHg 74%

    Pasado mañana, 28 Mayo, Jueves

    Tiempo Temperatura Precipitaciones Viento Presión Humedad
    00:00 +12°C° 0 mm 1 mps 740 mmHg 75%
    01:00 +12°C° 0 mm 1 mps 740 mmHg 76%
    02:00 +12°C° 0 mm 1 mps 740 mmHg 77%
    03:00 +11°C° 0 mm 1 mps 740 mmHg 79%
    04:00 +11°C° 0 mm 1 mps 740 mmHg 80%
    05:00 +12°C° 0 mm 1 mps 740 mmHg 79%
    06:00 +14°C° 0 mm 2 mps 740 mmHg 77%
    07:00 +15°C° 0 mm 2 mps 740 mmHg 75%
    08:00 +14°C° 0.1 mm 3 mps 740 mmHg 75%
    09:00 +16°C° 0.1 mm 3 mps 740 mmHg 75%
    10:00 +17°C° 0.1 mm 4 mps 740 mmHg 75%
    11:00 +17°C° 0.2 mm 4 mps 740 mmHg 71%
    12:00 +18°C° 0.2 mm 4 mps 739 mmHg 68%
    13:00 +19°C° 0.2 mm 4 mps 739 mmHg 64%
    14:00 +19°C° 0 mm 4 mps 739 mmHg 60%
    15:00 +19°C° 0 mm 4 mps 738 mmHg 55%
    16:00 +20°C° 0 mm 4 mps 738 mmHg 51%
    17:00 +19°C° 0 mm 3 mps 738 mmHg 54%
    18:00 +17°C° 0 mm 3 mps 738 mmHg 58%
    19:00 +16°C° 0 mm 3 mps 738 mmHg 61%
    20:00 +13°C° 0 mm 3 mps 738 mmHg 63%
    21:00 +13°C° 0 mm 2 mps 738 mmHg 64%
    22:00 +10°C° 0 mm 2 mps 738 mmHg 65%
    23:00 +9°C° 0 mm 2 mps 738 mmHg 69%

    29 Mayo, Viernes

    Tiempo Temperatura Precipitaciones Viento Presión Humedad
    00:00 +9°C° 0 mm 2 mps 738 mmHg 72%
    01:00 +8°C° 0 mm 2 mps 738 mmHg 75%
    02:00 +7°C° 0 mm 2 mps 737 mmHg 77%
    03:00 +7°C° 0 mm 2 mps 737 mmHg 79%
    04:00 +7°C° 0 mm 2 mps 737 mmHg 81%
    05:00 +8°C° 0 mm 2 mps 737 mmHg 77%
    06:00 +9°C° 0 mm 2 mps 737 mmHg 72%
    07:00 +12°C° 0 mm 2 mps 737 mmHg 67%
    08:00 +12°C° 0 mm 3 mps 737 mmHg 62%
    09:00 +14°C° 0 mm 3 mps 737 mmHg 57%
    10:00 +17°C° 0 mm 4 mps 736 mmHg 52%
    11:00 +18°C° 0 mm 4 mps 736 mmHg 50%
    12:00 +18°C° 0 mm 4 mps 736 mmHg 47%
    13:00 +19°C° 0 mm 4 mps 735 mmHg 45%
    14:00 +20°C° 0 mm 4 mps 735 mmHg 46%
    15:00 +20°C° 0 mm 5 mps 735 mmHg 47%
    16:00 +20°C° 0 mm 5 mps 734 mmHg 49%
    17:00 +19°C° 0 mm 4 mps 734 mmHg 54%
    18:00 +18°C° 0 mm 4 mps 734 mmHg 59%
    19:00 +17°C° 0 mm 3 mps 734 mmHg 64%
    20:00 +14°C° 0 mm 3 mps 734 mmHg 68%
    21:00 +13°C° 0 mm 2 mps 734 mmHg 72%
    22:00 +12°C° 0 mm 2 mps 734 mmHg 76%
    23:00 +10°C° 0 mm 2 mps 734 mmHg 77%

    30 Mayo, Sábado

    Tiempo Temperatura Precipitaciones Viento Presión Humedad
    00:00 +10°C° 0 mm 2 mps 734 mmHg 79%
    01:00 +9°C° 0 mm 2 mps 734 mmHg 81%
    02:00 +9°C° 0 mm 2 mps 734 mmHg 82%
    03:00 +8°C° 0 mm 2 mps 734 mmHg 82%
    04:00 +7°C° 0 mm 2 mps 734 mmHg 83%
    05:00 +9°C° 0 mm 2 mps 734 mmHg 78%
    06:00 +10°C° 0 mm 2 mps 734 mmHg 73%
    07:00 +12°C° 0 mm 2 mps 734 mmHg 68%
    08:00 +13°C° 0 mm 3 mps 734 mmHg 61%
    09:00 +15°C° 0 mm 4 mps 734 mmHg 54%
    10:00 +17°C° 0 mm 4 mps 734 mmHg 47%
    11:00 +18°C° 0 mm 4 mps 734 mmHg 46%
    12:00 +19°C° 0 mm 4 mps 734 mmHg 44%
    13:00 +20°C° 0 mm 5 mps 734 mmHg 43%
    14:00 +20°C° 0 mm 5 mps 734 mmHg 45%
    15:00 +20°C° 0 mm 4 mps 733 mmHg 46%
    16:00 +20°C° 0 mm 4 mps 733 mmHg 47%
    17:00 +19°C° 0 mm 4 mps 733 mmHg 53%
    18:00 +18°C° 0 mm 3 mps 733 mmHg 59%
    19:00 +17°C° 0 mm 3 mps 733 mmHg 65%
    20:00 +14°C° 0 mm 3 mps 733 mmHg 68%
    21:00 +14°C° 0 mm 2 mps 733 mmHg 72%
    22:00 +12°C° 0 mm 2 mps 733 mmHg 75%
    23:00 +12°C° 0 mm 2 mps 733 mmHg 77%

    31 Mayo, Domingo

    Tiempo Temperatura Precipitaciones Viento Presión Humedad
    00:00 +10°C° 0 mm 2 mps 733 mmHg 79%
    01:00 +9°C° 0 mm 2 mps 733 mmHg 81%
    02:00 +9°C° 0 mm 2 mps 733 mmHg 82%
    03:00 +8°C° 0 mm 2 mps 733 mmHg 84%
    04:00 +9°C° 0 mm 1 mps 733 mmHg 85%
    05:00 +9°C° 0 mm 2 mps 733 mmHg 80%
    06:00 +12°C° 0 mm 2 mps 733 mmHg 76%
    07:00 +13°C° 0 mm 2 mps 733 mmHg 71%
    08:00 +15°C° 0 mm 2 mps 733 mmHg 65%
    09:00 +16°C° 0 mm 3 mps 733 mmHg 60%
    10:00 +18°C° 0 mm 3 mps 733 mmHg 54%
    11:00 +18°C° 0 mm 3 mps 733 mmHg 53%
    12:00 +19°C° 0 mm 3 mps 732 mmHg 51%
    13:00 +19°C° 0 mm 3 mps 732 mmHg 49%
    14:00 +19°C° 0 mm 4 mps 732 mmHg 50%
    15:00 +19°C° 0 mm 4 mps 732 mmHg 51%
    16:00 +19°C° 0 mm 4 mps 731 mmHg 52%
    17:00 +18°C° 0 mm 4 mps 731 mmHg 56%
    18:00 +17°C° 0 mm 3 mps 731 mmHg 61%
    19:00 +16°C° 0 mm 3 mps 731 mmHg 66%
    20:00 +15°C° 0 mm 2 mps 731 mmHg 72%
    21:00 +13°C° 0 mm 2 mps 731 mmHg 78%
    22:00 +10°C° 0 mm 2 mps 731 mmHg 84%
    23:00 +9°C° 0 mm 2 mps 731 mmHg 85%
    Mostrar más